Location: ??
(34.7873°N, 135.8804°E)
Time: 22:59:59
(UTC+00:00)

Daily predictions for brighter satellites

Satellite Brightness Start Highest point End
(mag) Time Altitude Azimuth Time Altitude Azimuth Time Altitude Azimuth
Cosmos 1844 Rocket 3.9 18:23:34 34° SE 18:23:34 34° SE 18:26:48 10° SE
Aureole 1 Rocket 4.2 18:26:01 67° ESE 18:26:13 67° ESE 18:31:55 10° NNE
Cosmos 2333 Rocket 2.7 18:36:10 55° NNE 18:36:10 55° NNE 18:40:33 10° NNE
Cosmos 1844 3.9 18:42:59 51° N 18:44:25 72° ENE 18:50:08 10° SSE
NOSS 3-4 (A) 4.2 18:43:12 27° S 18:46:05 46° ESE 18:51:55 10° NE
NOSS 3-4 (C) 4.3 18:43:10 26° S 18:46:10 45° ESE 18:52:00 10° NE
ADEOS 4.0 18:41:26 10° NNE 18:45:21 52° NNE 18:45:21 52° NNE
MSX 4.1 18:43:41 10° NNE 18:49:22 64° ESE 18:54:15 14° S
USA 234 3.6 18:43:44 10° ESE 18:50:08 60° NE 18:53:59 25° NNW
Cosmos 1709 Rocket 4.0 18:52:21 60° NW 18:52:21 60° NW 18:57:49 10° N
BREEZE-M DEB (TANK) 3.2 18:56:00 49° NE 18:56:00 49° NE 18:58:29 10° E
Milstar 3 4.5 18:54:39 16° SSW 18:58:00 22° SSE 19:03:06 10° ESE
Cosmos 2219 Rocket 2.5 19:09:59 45° NW 19:09:59 45° NW 19:14:42 10° N
CZ-4B R/B 3.8 19:10:32 10° NNE 19:14:23 46° E 19:18:02 10° S
Cosmos 2237 Rocket 2.4 19:10:03 10° S 19:15:39 70° ESE 19:21:19 10° NNE
CZ-2C R/B 2.7 19:10:29 10° NNE 19:15:41 71° ESE 19:20:47 10° S
BREEZE-M DEB (TANK) 3.9 19:16:03 25° SW 19:21:15 76° SSE 19:24:51 10° ENE
COSMOS 2428 3.3 19:26:03 34° WNW 19:26:03 34° WNW 19:31:04 10° N
ATLAS 2AS CENTAUR R/B 3.1 19:21:40 28° SW 19:26:13 63° NW 19:34:15 10° NNE
Cosmos 2074 Rocket 3.9 19:21:31 10° S 19:27:46 88° WNW 19:34:02 10° N
CENTAUR R/B 4.3 19:20:20 10° NNW 19:28:01 42° NE 19:36:09 10° ESE
Meteor 1-4 Rocket 4.2 19:24:55 10° SSE 19:28:08 33° E 19:31:19 10° NNE
Cosmos 1980 3.6 19:27:06 13° SSW 19:32:14 78° WNW 19:37:56 10° NNE
IDEFIX/ARIANE 42P 3.4 19:28:03 10° N 19:31:59 30° NW 19:31:59 30° NW
NOSS 0 Rocket 3.8 19:28:23 18° SW 19:32:58 66° WNW 19:39:08 10° NNE
Cosmos 1140 Rocket 3.9 19:30:15 10° S 19:35:23 65° ESE 19:40:31 10° NNE
Cosmos 1953 3.9 19:31:46 10° NNE 19:35:31 36° E 19:39:13 10° SSE
USA 238 DEB 3.8 19:28:48 10° NNW 19:36:06 85° WSW 19:43:35 10° SSE
ERBS 3.8 19:37:03 24° NNW 19:37:03 24° NNW 19:39:09 10° NNE
USA 238 3.8 19:28:55 10° NNW 19:36:13 85° WSW 19:43:40 10° SSE
COSMOS 2455 4.4 19:39:03 16° NW 19:39:03 16° NW 19:42:27 10° N
Cosmos 2181 Rocket 4.1 19:33:57 10° NNW 19:40:00 48° W 19:45:57 10° SSW
PAYLOAD A 4.1 19:36:53 10° N 19:41:33 48° WNW 19:46:21 10° SSW
Cosmos 1758 3.2 19:38:07 10° N 19:42:08 88° E 19:46:09 10° S
Cosmos 1992 Rocket 4.3 19:39:03 14° NW 19:43:09 41° WSW 19:47:58 10° S
Cosmos 614 Rocket 3.9 19:38:13 10° SSW 19:43:24 68° WNW 19:48:37 10° NNE
Cosmos 292 Rocket 3.8 19:41:59 10° NNW 19:46:48 80° ENE 19:51:36 10° SSE
COSMO-SKYMED 1 4.1 19:46:13 10° SE 19:50:14 38° ENE 19:54:16 10° N
RESURS DK-1 3.6 19:48:36 10° S 19:52:31 43° ESE 19:56:26 10° NE
Cosmos 389 Rocket 2.5 19:53:43 10° SSW 19:57:02 50° W 20:00:23 10° N
Cosmos 489 Rocket 4.5 19:52:22 10° NNW 19:58:38 87° WSW 20:04:55 10° SSE
CZ-4B R/B 4.2 19:56:03 10° N 19:59:49 41° WNW 20:03:42 10° SW
H-2A R/B 3.9 19:59:14 10° NNW 20:02:08 19° WNW 20:02:08 19° WNW
NOSS 3-2 (A) 4.1 19:54:51 10° NW 20:02:40 69° WSW 20:11:09 10° SSE
PSLV R/B 4.2 20:01:32 13° SSW 20:03:30 31° SSE 20:05:54 10° E
Cosmos 1844 Rocket 4.2 20:05:24 15° WSW 20:05:24 15° WSW 20:07:49 10° SW
Meteor 1-31 Rocket 3.4 20:02:10 10° N 20:05:34 32° WNW 20:08:57 10° SW
SL-16 R/B 2.6 20:01:28 10° S 20:07:04 69° ESE 20:12:42 10° NNE
Meteor PRIRODA 4.0 20:07:56 10° N 20:11:29 43° WNW 20:15:01 10° SSW
Cosmos 1726 Rocket 3.8 20:07:53 10° N 20:12:12 71° E 20:16:28 10° SSE
Okean O Rocket 2.3 20:08:02 10° NNE 20:12:22 57° E 20:16:40 10° S
Cosmos 1707 3.4 20:09:43 10° SW 20:13:15 33° W 20:16:49 10° NNW
Cosmos 676 Rocket 4.0 20:08:12 10° SSW 20:13:28 69° WNW 20:18:44 10° NNE
Cosmos 1470 3.3 20:10:52 10° NNW 20:14:25 34° W 20:17:56 10° SSW
GPS 2-05 Rocket1 4.1 20:17:55 13° WSW 20:19:23 19° SSW 20:21:26 10° SSE
Cosmos 2333 Rocket 3.9 20:18:14 11° WNW 20:19:50 13° NW 20:22:13 10° NNW
Cosmos 2228 2.9 20:17:01 10° N 20:21:17 83° W 20:25:30 10° S
Cosmos 1484 Rocket 2.9 20:19:25 10° N 20:23:04 48° WNW 20:26:46 10° SSW
FENGYUN 3A 4.0 20:17:41 10° NNE 20:23:08 72° ESE 20:28:33 10° S
Cosmos 2278 Rocket 2.3 20:18:30 10° NNW 20:24:01 54° WSW 20:29:30 10° S
Cosmos 2058 Rocket 3.7 20:20:39 10° N 20:25:01 63° E 20:29:24 10° SSE
NOSS 3-2 (C) 4.2 20:17:11 10° NW 20:25:04 73° WSW 20:33:35 10° SSE
SeaSat 1 3.3 20:20:47 10° NE 20:25:37 55° ESE 20:30:26 10° S
Milstar 3 Cent rocket 3.4 20:22:21 10° SW 20:26:48 29° SSE 20:30:51 10° ESE
Cosmos 407 Rocket 4.5 20:23:13 10° WSW 20:27:25 25° WNW 20:31:38 10° N
Cosmos 2154 Rocket 4.2 20:22:31 10° SSW 20:28:27 47° W 20:34:24 10° N
Cosmos 921 Rocket 4.1 20:28:44 10° NW 20:32:04 22° W 20:35:20 10° SSW
USA 234 4.0 20:27:35 10° S 20:33:17 32° SW 20:39:01 10° WNW
Cosmos 1356 3.4 20:30:44 10° N 20:34:12 84° W 20:37:37 10° S
NOSS 3-4 (A) 4.4 20:32:05 10° WSW 20:37:06 27° NW 20:42:23 10° N
NOSS 3-4 (C) 4.4 20:32:08 10° WSW 20:37:11 28° NW 20:42:30 10° N
SKYMED 2 3.7 20:33:57 10° S 20:38:11 54° W 20:42:26 10° NNW
METEOR-M 4.1 20:34:13 10° N 20:39:32 74° WNW 20:44:50 10° SSW
